Regional Weather Roundup
Issued by NWS Memphis, TN

Home | Current Version | Previous Version | Text Only | Print | Product List | Glossary On
Versions: 1 2 3 4 5 6 7 8 9 10 11 12 13 14 15 16 17 18 19 20 21 22 23 24 25 26 27 28 29 30 31 32 33 34 35 36 37 38 39 40 41 42 43 44 45 46 47 48 49 50
000
ASUS44 KMEG 182210
RWRMEG
MEMPHIS CWA HOURLY WEATHER ROUNDUP
NATIONAL WEATHER SERVICE MEMPHIS TN
500 PM CDT WED OCT 18 2017

...WEST TENNESSEE...

CITY           SKY/WX    TMP DP  RH WIND       PRES   REMARKS
MEMPHIS INTL   SUNNY     73  46  38 S8        30.18S
NWS MEMPHIS      N/A     74 N/A N/A MISG        N/A
JACKSON        SUNNY     72  49  44 SE3       30.20S
COVINGTON      SUNNY     72  46  40 S8        30.19S
SOMERVILLE     SUNNY     72  48  43 VRB6      30.18S
BOLIVAR        SUNNY     72  46  40 SE5       30.19S
LEXINGTON      SUNNY     72  45  37 S6        30.20S
SELMER         SUNNY     72  45  37 VRB5      30.20S
SAVANNAH       SUNNY     72  45  37 SE5       30.20S
UNION CITY     SUNNY     72  46  40 S10       30.18S
PARIS          SUNNY     70  46  43 S7        30.19S
HUNTINGDON     SUNNY     72  46  40 SE7       30.19S


...EASTERN ARKANSAS...

CITY           SKY/WX    TMP DP  RH WIND       PRES   REMARKS
JONESBORO      SUNNY     75  52  44 S9        30.15S
WEST MEMPHIS   SUNNY     73  47  39 S10       30.16F
BATESVILLE     SUNNY     75  48  38 S7        30.15R
NEWPORT        SUNNY     75  49  39 S12       30.15S
WALNUT RIDGE   SUNNY     74  48  39 S12       30.15S
BLYTHEVILLE    SUNNY     73  48  41 S12       30.18S
NW BLYTHEVILLE SUNNY     73  46  38 S10       30.17F
SEARCY         SUNNY     77  50  38 S8        30.15S
STUTTGART      SUNNY     77  47  34 S10       30.16S
PINE BLUFF     SUNNY     77  49  37 SE8       30.15S
MONTICELLO     SUNNY     77  48  35 SE5       30.16S


...NORTH MISSISSIPPI...

CITY           SKY/WX    TMP DP  RH WIND       PRES   REMARKS
TUPELO         SUNNY     73  42  32 SE7       30.20S
OXFORD         SUNNY     72  45  37 VRB5      30.20S
BATESVILLE     SUNNY     74  41  30 SE3       30.19S
OLIVE BRANCH   SUNNY    N/A N/A N/A S7        30.17F
TUNICA           N/A    N/A N/A N/A S7        30.18F
CLARKSDALE       N/A     75  46  35 SE7       30.17S
CORINTH        SUNNY     73  45  35 S6        30.20S
GREENWOOD      SUNNY     76  46  34 E7        30.16F
COLUMBUS       SUNNY     73  50  43 SE7       30.19F
STARKVILLE     SUNNY     72  43  35 SE5       30.20F
GOLDEN TRIANGL SUNNY     72  45  37 SE8       30.20S


...SOUTHEAST MISSOURI...

CITY           SKY/WX    TMP DP  RH WIND       PRES   REMARKS
KENNETT        SUNNY     75  46  35 S13       30.15S HAZE
MALDEN         SUNNY     75  43  31 S12       30.17S
WEST PLAINS    SUNNY     74  44  34 S7        30.14S
POPLAR BLUFF   SUNNY     74  47  38 S10       30.14F
CAPE GIRARDEAU SUNNY     72  46  39 S15       30.16S


...NORTHWEST ALABAMA...

CITY           SKY/WX    TMP DP  RH WIND       PRES   REMARKS
MUSCLE SHOALS  SUNNY     73  42  32 S3        30.23S


...MIDDLE TENNESSEE...

CITY           SKY/WX    TMP DP  RH WIND       PRES   REMARKS
NASHVILLE      MOSUNNY   72  40  31 S7        30.23F
CLARKSVILLE    SUNNY     71  43  36 S7        30.21F
COLUMBIA       SUNNY     72  41  33 S6        30.21S


...WESTERN KENTUCKY...

CITY           SKY/WX    TMP DP  RH WIND       PRES   REMARKS
PADUCAH        SUNNY     71  45  39 S6        30.17S
FORT CAMPBELL  SUNNY     71  44  38 S5        30.20F


...CENTRAL ARKANSAS...

CITY           SKY/WX    TMP DP  RH WIND       PRES   REMARKS
LITTLE ROCK    MOSUNNY   76  52  43 SE12      30.14F


SKY/WX REPORTED AS FAIR MEANS FEW OR NO CLOUDS BELOW
12 THOUSAND FEET.




USA.gov is the U.S. government's official web portal to all federal, state and local government web resources and services.